This is the latest recevied weather packets stored in our database for station/object W0WC. If no packets are shown the sender has not sent any weather packets the latest 10 day(s).
| Time | Temp. | Humidity | Pressure | Rain* | Wind** | Luminosity | Snow |
|---|---|---|---|---|---|---|---|
| 1787860606 | 32.78° C | 36% | 1018.4 hPa | 0 mm | - | 646 W/m² | - |
| 1787860301 | 32.78° C | 37% | 1018.4 hPa | 0 mm | - | 648 W/m² | - |
| 1787859996 | 32.78° C | 37% | 1018.4 hPa | 0 mm | - | 661 W/m² | - |
| 1787859691 | 32.78° C | 37% | 1018.4 hPa | 0 mm | - | 665 W/m² | - |
| 1787859391 | 32.78° C | 37% | 1018.5 hPa | 0 mm | - | 688 W/m² | - |
| 1787859086 | 32.78° C | 38% | 1018.5 hPa | 0 mm | - | 648 W/m² | - |
| 1787858782 | 32.78° C | 38% | 1018.6 hPa | 0 mm | - | 599 W/m² | - |
| 1787858478 | 32.78° C | 38% | 1018.6 hPa | 0 mm | - | 716 W/m² | - |
| 1787858177 | 32.78° C | 38% | 1018.6 hPa | 0 mm | - | 696 W/m² | - |
| 1787857873 | 32.78° C | 39% | 1018.8 hPa | 0 mm | - | 671 W/m² | - |
| 1787857569 | 32.78° C | 38% | 1018.7 hPa | 0 mm | - | 526 W/m² | - |
| 1787857263 | 32.78° C | 39% | 1018.9 hPa | 0 mm | - | 637 W/m² | - |
| 1787856962 | 32.78° C | 38% | 1019 hPa | 0 mm | - | 702 W/m² | - |
| 1787856657 | 32.78° C | 38% | 1018.9 hPa | 0 mm | - | 689 W/m² | - |
| 1787856357 | 32.22° C | 38% | 1018.9 hPa | 0 mm | - | 754 W/m² | - |
| 1787856053 | 32.22° C | 39% | 1019 hPa | 0 mm | - | 659 W/m² | - |
| 1787855752 | 32.78° C | 39% | 1019.3 hPa | 0 mm | - | 682 W/m² | - |
| 1787855447 | 32.22° C | 39% | 1019.1 hPa | 0 mm | - | 709 W/m² | - |
| 1787855143 | 32.22° C | 38% | 1019.2 hPa | 0 mm | - | 604 W/m² | - |
| 1787854838 | 32.22° C | 38% | 1019.4 hPa | 0 mm | - | 559 W/m² | - |
| 1787854538 | 32.22° C | 38% | 1019.3 hPa | 0 mm | - | 658 W/m² | - |
| 1787854233 | 32.22° C | 38% | 1019.3 hPa | 0 mm | - | 661 W/m² | - |
| 1787853932 | 31.67° C | 39% | 1019.5 hPa | 0 mm | - | 712 W/m² | - |
| 1787853627 | 32.22° C | 39% | 1019.3 hPa | 0 mm | - | 616 W/m² | - |
| 1787853326 | 31.67° C | 39% | 1019.7 hPa | 0 mm | - | 744 W/m² | - |
* Rain latest hour (hover to see other rain measurements)
** Current wind speed in m/s (hover to see current wind gust speed)